Regional Weather Roundup
Issued by NWS State College, PA

Home | Current Version | Previous Version | Graphics & Text | Print | Product List | Glossary Off
Versions: 1 2 3 4 5 6 7 8 9 10 11 12 13 14 15 16 17 18 19 20 21 22 23 24 25 26 27 28 29 30 31 32 33 34 35 36 37 38 39 40 41 42 43 44 45 46 47 48 49 50

000
ASUS41 KCTP 281403
RWRCTP

REGIONAL WEATHER ROUNDUP
NATIONAL WEATHER SERVICE STATE COLLEGE PA
1000 AM EDT SUN AUG 28 2016

Note: "fair" indicates few or no clouds below 12,000 feet with no
significant weather and/or obstructions to visibility.

* = STATION THAT DOES NOT REPORT PRECIPITATION /E.G. RAIN...SNOW...ETC/
    THUNDER OR FOG.

PAZ002>004-007>009-013>016-020>023-029>032-281500-
WESTERN PENNSYLVANIA

CITY           SKY/WX    TMP DP  RH WIND       PRES   REMARKS
ERIE           MOSUNNY   80  71  74 SW6       30.19S
MEADVILLE      MOSUNNY   74  66  76 S3        30.25R
FRANKLIN*        N/A     75  66  73 S3        30.25F
NEW CASTLE     FAIR      79  69  71 CALM      30.24S
BEAVER COUNTY  NOT AVBL
BUTLER*        NOT AVBL
PITTSBURGH INT PTSUNNY   80  69  69 CALM      30.23S
PITTSBURGH     MOSUNNY   79  69  71 S5        30.23R
INDIANA*       PTSUNNY   81  70  69 S5        30.28R
LATROBE        PTSUNNY   81  73  78 CALM      30.25R
WASHINGTON CO* SUNNY     81  72  74 SW3       30.24S
$$

PAZ004>006-010>012-017>019-024>028-033>037-041-042-045-046-049>053-281500-
CENTRAL PENNSYLVANIA

CITY           SKY/WX    TMP DP  RH WIND       PRES   REMARKS
BRADFORD       MOSUNNY   76  68  76 SW9       30.28S
DUBOIS         PTSUNNY   76  66  71 SE6       30.27S
CLEARFIELD     SUNNY     77  66  68 SW3       30.28S
JOHNSTOWN      SUNNY     76  67  73 S9        30.30S
ALTOONA        SUNNY     78  66  66 VRB5      30.29S
STATE COLLEGE  SUNNY     75  66  73 S8        30.28R
WILLIAMSPORT   SUNNY     78  64  61 E3        30.25S
SELINSGROVE    SUNNY     78  70  76 S5        30.27R
FT INDIANTOWN  SUNNY     75  65  69 VRB1      30.28R
CAPITAL CITY   SUNNY     78  68  71 E5        30.27S
HARRISBURG     MOSUNNY   78  70  76 SE5       30.26S
YORK           SUNNY     77  69  76 SE6       30.27S
$$

PAZ038>040-043-044-047-048-054-055-060>062-067>071-281500-
EASTERN PENNSYLVANIA

CITY           SKY/WX    TMP DP  RH WIND       PRES   REMARKS
SCRANTON       SUNNY     77  62  59 VRB5      30.28S
MOUNT POCONO   SUNNY     74  55  51 S8        30.33R
ALLENTOWN      SUNNY     76  65  68 CALM      30.28S
QUAKERTOWN*    SUNNY     77  64  65 CALM      30.29S
READING        SUNNY     78  66  66 VRB3      30.27S
LANCASTER      SUNNY     77  70  79 SE5       30.27F
COATESVILLE    SUNNY     77  68  73 CALM      30.30S
POTTSTOWN      SUNNY     76  68  76 VRB5      30.29S
BLUE BELL      SUNNY     77  68  73 CALM      30.27S
DOYLESTOWN     SUNNY     78  71  79 CALM      30.28S
WILLOW GROVE   NOT AVBL
NORTH PHILA    SUNNY     80  69  69 CALM      30.28F
PHILADELPHIA   MOSUNNY   80  67  64 CALM      30.27S
$$




USA.gov is the U.S. government's official web portal to all federal, state and local government web resources and services.